| time (UTC) | temp F | wind direction | speed knots | gust knots | rain 1hr in | rain 24hr in | rain mn in | humidity % | barometer mb |
| 20260506104004 | 75 | 214 | 0.0 | 6.1 | 0.00 | 0.00 | 0.00 | 88 | 1009.0 |
| 20260506103504 | 75 | 149 | 0.9 | 6.1 | 0.00 | 0.00 | 0.00 | 88 | 1008.9 |
| 20260506103014 | 75 | 132 | 0.0 | 4.3 | 0.00 | 0.00 | 0.00 | 88 | 1008.9 |
| 20260506102504 | 75 | 183 | 1.7 | 5.2 | 0.00 | 0.00 | 0.00 | 88 | 1008.9 |
| 20260506102004 | 75 | 163 | 0.9 | 7.8 | 0.00 | 0.00 | 0.00 | 88 | 1008.9 |
| 20260506101519 | 75 | 170 | 0.9 | 7.8 | 0.00 | 0.00 | 0.00 | 89 | 1008.9 |
| 20260506100021 | 75 | 325 | 0.9 | 5.2 | 0.00 | 0.00 | 0.00 | 89 | 1008.6 |
| 20260506095508 | 75 | 186 | 1.7 | 5.2 | 0.00 | 0.00 | 0.00 | 89 | 1008.6 |
| 20260506095009 | 75 | 174 | 1.7 | 4.3 | 0.00 | 0.00 | 0.00 | 89 | 1008.5 |
| 20260506094527 | 75 | 188 | 0.9 | 4.3 | 0.00 | 0.00 | 0.00 | 89 | 1008.5 |
| 20260506094009 | 75 | 193 | 0.9 | 6.1 | 0.00 | 0.00 | 0.00 | 89 | 1008.5 |
| 20260506093512 | 75 | 177 | 1.7 | 6.1 | 0.00 | 0.00 | 0.00 | 89 | 1008.3 |
| 20260506093015 | 75 | 192 | 0.9 | 6.1 | 0.00 | 0.00 | 0.00 | 89 | 1008.3 |
| 20260506092505 | 75 | 273 | 0.9 | 6.1 | 0.00 | 0.00 | 0.00 | 89 | 1008.3 |
| 20260506092004 | 75 | 131 | 0.9 | 4.3 | 0.00 | 0.00 | 0.00 | 89 | 1008.3 |
| 20260506091516 | 75 | 109 | 1.7 | 4.3 | 0.00 | 0.00 | 0.00 | 89 | 1008.3 |
| 20260506091006 | 75 | 215 | 0.9 | 2.6 | 0.00 | 0.00 | 0.00 | 89 | 1008.2 |
| 20260506090507 | 75 | 235 | 0.0 | 3.5 | 0.00 | 0.00 | 0.00 | 89 | 1008.2 |
| 20260506085507 | 75 | 70 | 0.9 | 5.2 | 0.00 | 0.00 | 0.00 | 89 | 1008.2 |
| 20260506085007 | 75 | 209 | 0.9 | 4.3 | 0.00 | 0.00 | 0.00 | 89 | 1008.3 |
| 20260506084521 | 75 | 181 | 0.9 | 4.3 | 0.00 | 0.00 | 0.00 | 89 | 1008.2 |
| 20260506084007 | 74 | 223 | 0.0 | 3.5 | 0.00 | 0.00 | 0.00 | 89 | 1008.2 |
| 20260506083509 | 75 | 91 | 1.7 | 3.5 | 0.00 | 0.00 | 0.00 | 89 | 1008.3 |
| 20260506083027 | 75 | 175 | 1.7 | 3.5 | 0.00 | 0.00 | 0.00 | 89 | 1008.3 |
| 20260506082508 | 75 | 184 | 0.9 | 7.0 | 0.00 | 0.00 | 0.00 | 89 | 1008.2 |
| 20260506082004 | 75 | 151 | 0.9 | 8.7 | 0.00 | 0.00 | 0.00 | 89 | 1008.2 |
| 20260506081516 | 75 | 207 | 2.6 | 8.7 | 0.00 | 0.00 | 0.00 | 89 | 1008.3 |
| 20260506081007 | 75 | 166 | 0.9 | 3.5 | 0.00 | 0.00 | 0.00 | 89 | 1008.3 |
| 20260506080504 | 75 | 223 | 1.7 | 3.5 | 0.00 | 0.00 | 0.00 | 89 | 1008.4 |
| 20260506073512 | 75 | 117 | 1.7 | 7.0 | 0.00 | 0.00 | 0.00 | 88 | 1008.7 |
| 20260506073025 | 75 | 180 | 0.9 | 3.5 | 0.00 | 0.00 | 0.00 | 88 | 1008.7 |
| 20260506072512 | 75 | 168 | 0.9 | 5.2 | 0.00 | 0.00 | 0.00 | 88 | 1008.8 |
| 20260506072008 | 75 | 169 | 1.7 | 6.1 | 0.00 | 0.00 | 0.00 | 88 | 1008.7 |
| 20260506071530 | 75 | 195 | 1.7 | 7.0 | 0.00 | 0.00 | 0.00 | 88 | 1008.8 |
| 20260506071004 | 75 | 132 | 1.7 | 7.0 | 0.00 | 0.00 | 0.00 | 88 | 1008.8 |
| 20260506070504 | 75 | 150 | 1.7 | 7.8 | 0.00 | 0.00 | 0.00 | 88 | 1008.8 |
| 20260506062009 | 75 | 183 | 1.7 | 5.2 | 0.00 | 0.00 | 0.00 | 88 | 1009.0 |
| 20260506061533 | 75 | 191 | 1.7 | 5.2 | 0.00 | 0.00 | 0.00 | 88 | 1008.9 |
| 20260506061010 | 75 | 116 | 1.7 | 5.2 | 0.00 | 0.00 | 0.00 | 88 | 1008.8 |
| 20260506060506 | 75 | 215 | 1.7 | 6.1 | 0.00 | 0.00 | 0.00 | 88 | 1008.8 |
| 20260506051005 | 75 | 159 | 0.0 | 2.6 | 0.00 | 0.00 | 0.00 | 88 | 1009.0 |
| 20260506050506 | 75 | 148 | 0.9 | 3.5 | 0.00 | 0.00 | 0.00 | 88 | 1009.0 |
| 20260506045003 | 75 | 161 | 0.9 | 2.6 | 0.00 | 0.00 | 0.00 | 87 | 1009.0 |
| 20260506044524 | 75 | 148 | 0.9 | 4.3 | 0.00 | 0.00 | 0.00 | 87 | 1008.9 |
| 20260506044005 | 76 | 154 | 0.9 | 5.2 | 0.00 | 0.00 | 0.00 | 87 | 1009.0 |
| 20260506043508 | 76 | 163 | 0.9 | 7.0 | 0.00 | 0.00 | 0.00 | 87 | 1008.9 |
| 20260506043008 | 76 | 140 | 1.7 | 7.8 | 0.00 | 0.00 | 0.00 | 86 | 1008.8 |
| 20260506042507 | 76 | 93 | 1.7 | 10.4 | 0.00 | 0.00 | 0.00 | 86 | 1008.9 |
| 20260506042004 | 76 | 89 | 1.7 | 10.4 | 0.00 | 0.00 | 0.00 | 86 | 1008.9 |
| 20260506041508 | 76 | 107 | 1.7 | 8.7 | 0.00 | 0.00 | 0.00 | 86 | 1008.8 |
| 20260506041006 | 76 | 96 | 2.6 | 8.7 | 0.00 | 0.00 | 0.00 | 86 | 1008.8 |
| 20260506040504 | 76 | 128 | 4.3 | 8.7 | 0.00 | 0.00 | 0.00 | 86 | 1008.7 |
| 20260506040033 | 76 | 113 | 2.6 | 6.1 | 0.00 | 0.00 | 0.00 | 86 | 1008.6 |
| 20260506035504 | 76 | 127 | 2.6 | 8.7 | 0.00 | 0.00 | 0.00 | 86 | 1008.6 |
| 20260506035005 | 76 | 164 | 2.6 | 8.7 | 0.00 | 0.00 | 0.00 | 86 | 1008.5 |
| 20260506034513 | 76 | 165 | 1.7 | 7.8 | 0.00 | 0.00 | 0.00 | 85 | 1008.4 |
| 20260506034005 | 76 | 258 | 3.5 | 7.0 | 0.00 | 0.00 | 0.00 | 85 | 1008.4 |
| 20260506033505 | 76 | 136 | 3.5 | 5.2 | 0.00 | 0.00 | 0.00 | 85 | 1008.3 |
| 20260506033019 | 76 | 130 | 2.6 | 7.8 | 0.00 | 0.00 | 0.00 | 85 | 1008.3 |
| 20260506032505 | 76 | 99 | 0.9 | 7.8 | 0.00 | 0.00 | 0.00 | 84 | 1008.2 |
| 20260506032001 | 77 | 126 | 3.5 | 7.8 | 0.00 | 0.00 | 0.00 | 84 | 1008.2 |
| 20260506031514 | 77 | 141 | 3.5 | 7.8 | 0.00 | 0.00 | 0.00 | 84 | 1008.0 |
| 20260506031006 | 77 | 122 | 3.5 | 7.8 | 0.00 | 0.00 | 0.00 | 84 | 1007.9 |
| 20260506030503 | 77 | 130 | 5.2 | 7.8 | 0.00 | 0.00 | 0.00 | 84 | 1007.8 |
| 20260506030009 | 77 | 144 | 4.3 | 8.7 | 0.00 | 0.00 | 0.00 | 83 | 1007.7 |
| 20260506025504 | 77 | 124 | 3.5 | 8.7 | 0.00 | 0.00 | 0.00 | 83 | 1007.7 |
| 20260506025004 | 77 | 148 | 3.5 | 7.8 | 0.00 | 0.00 | 0.00 | 83 | 1007.6 |
| 20260506024520 | 77 | 154 | 3.5 | 8.7 | 0.00 | 0.00 | 0.00 | 83 | 1007.5 |
| 20260506024005 | 78 | 139 | 3.5 | 8.7 | 0.00 | 0.00 | 0.00 | 82 | 1007.3 |
| 20260506023505 | 78 | 215 | 6.1 | 8.7 | 0.00 | 0.00 | 0.00 | 82 | 1007.3 |
| 20260506023019 | 78 | 134 | 5.2 | 9.6 | 0.00 | 0.00 | 0.00 | 82 | 1007.3 |
| 20260506022506 | 78 | 146 | 4.3 | 10.4 | 0.00 | 0.00 | 0.00 | 82 | 1007.1 |
| 20260506022005 | 78 | 130 | 5.2 | 10.4 | 0.00 | 0.00 | 0.00 | 82 | 1007.1 |
| 20260506021522 | 78 | 137 | 4.3 | 8.7 | 0.00 | 0.00 | 0.00 | 82 | 1007.0 |
| 20260506021009 | 78 | 118 | 4.3 | 7.0 | 0.00 | 0.00 | 0.00 | 81 | 1007.0 |
| 20260506020508 | 78 | 153 | 1.7 | 5.2 | 0.00 | 0.00 | 0.00 | 81 | 1007.0 |
| 20260506020008 | 78 | 121 | 0.9 | 4.3 | 0.00 | 0.00 | 0.00 | 81 | 1006.8 |
| 20260506015504 | 78 | 130 | 1.7 | 4.3 | 0.00 | 0.00 | 0.00 | 80 | 1006.7 |
| 20260506015004 | 78 | 119 | 0.9 | 4.3 | 0.00 | 0.00 | 0.00 | 80 | 1006.7 |
| 20260506014514 | 78 | 55 | 1.7 | 5.2 | 0.00 | 0.00 | 0.00 | 79 | 1006.7 |
| 20260506014004 | 79 | 137 | 1.7 | 4.3 | 0.00 | 0.00 | 0.00 | 79 | 1006.7 |
| 20260506013507 | 79 | 117 | 1.7 | 3.5 | 0.00 | 0.00 | 0.00 | 78 | 1006.8 |
| 20260506013014 | 79 | 125 | 1.7 | 2.6 | 0.00 | 0.00 | 0.00 | 78 | 1006.8 |
| 20260506012505 | 79 | 101 | 0.9 | 2.6 | 0.00 | 0.00 | 0.00 | 77 | 1006.7 |
| 20260506012009 | 80 | 107 | 0.9 | 1.7 | 0.00 | 0.00 | 0.00 | 77 | 1006.7 |
| 20260506011523 | 80 | 156 | 0.9 | 2.6 | 0.00 | 0.00 | 0.00 | 76 | 1006.8 |
| 20260506011005 | 80 | 152 | 0.9 | 3.5 | 0.00 | 0.00 | 0.00 | 76 | 1006.8 |
| 20260506010510 | 81 | 136 | 0.9 | 3.5 | 0.00 | 0.00 | 0.00 | 75 | 1006.8 |
| 20260506010022 | 81 | 132 | 1.7 | 4.3 | 0.00 | 0.00 | 0.00 | 75 | 1006.7 |
| 20260506005504 | 81 | 130 | 2.6 | 5.2 | 0.00 | 0.00 | 0.00 | 74 | 1006.7 |
| 20260506005006 | 81 | 147 | 3.5 | 5.2 | 0.00 | 0.00 | 0.00 | 74 | 1006.6 |
| 20260506004520 | 82 | 117 | 2.6 | 4.3 | 0.00 | 0.00 | 0.00 | 73 | 1006.6 |
| 20260506004006 | 82 | 133 | 0.9 | 3.5 | 0.00 | 0.00 | 0.00 | 73 | 1006.5 |
| 20260506003507 | 82 | 119 | 1.7 | 3.5 | 0.00 | 0.00 | 0.00 | 72 | 1006.4 |
| 20260506003016 | 83 | 98 | 1.7 | 6.1 | 0.00 | 0.00 | 0.00 | 71 | 1006.4 |
| 20260506002504 | 83 | 246 | 1.7 | 7.8 | 0.00 | 0.00 | 0.00 | 71 | 1006.5 |
| 20260506002005 | 83 | 144 | 2.6 | 7.8 | 0.00 | 0.00 | 0.00 | 70 | 1006.2 |
| 20260506001520 | 83 | 185 | 0.9 | 4.3 | 0.00 | 0.00 | 0.00 | 70 | 1006.5 |
| 20260506001011 | 83 | 205 | 0.9 | 6.1 | 0.00 | 0.00 | 0.00 | 70 | 1006.5 |
| 20260506000511 | 83 | 148 | 0.9 | 6.1 | 0.00 | 0.00 | 0.00 | 70 | 1006.4 |
| 20260506000023 | 83 | 297 | 0.0 | 7.8 | 0.00 | 0.00 | 0.00 | 71 | 1006.3 |
| 20260505235508 | 83 | 132 | 1.7 | 7.8 | 0.00 | 0.00 | 0.00 | 71 | 1006.1 |
| 20260505235007 | 83 | 114 | 3.5 | 7.0 | 0.00 | 0.00 | 0.00 | 70 | 1006.1 |
| 20260505234509 | 83 | 142 | 2.6 | 7.0 | 0.00 | 0.00 | 0.00 | 70 | 1006.1 |
| 20260505234005 | 83 | 160 | 0.9 | 7.0 | 0.00 | 0.00 | 0.00 | 70 | 1006.3 |
| 20260505233505 | 83 | 120 | 3.5 | 6.1 | 0.00 | 0.00 | 0.00 | 71 | 1006.3 |
| 20260505233017 | 83 | 178 | 2.6 | 7.8 | 0.00 | 0.00 | 0.00 | 70 | 1006.2 |
| 20260505232507 | 84 | 92 | 5.2 | 7.8 | 0.00 | 0.00 | 0.00 | 69 | 1006.2 |
| 20260505232005 | 84 | 142 | 1.7 | 7.0 | 0.00 | 0.00 | 0.00 | 69 | 1006.3 |
| 20260505231528 | 84 | 170 | 2.6 | 6.1 | 0.00 | 0.00 | 0.00 | 68 | 1006.2 |
| 20260505231004 | 84 | 78 | 2.6 | 6.1 | 0.00 | 0.00 | 0.00 | 68 | 1006.1 |
| 20260505230506 | 84 | 178 | 0.9 | 7.0 | 0.00 | 0.00 | 0.00 | 69 | 1006.0 |
| 20260505230028 | 84 | 219 | 1.7 | 9.6 | 0.00 | 0.00 | 0.00 | 69 | 1006.0 |
| 20260505225509 | 84 | 142 | 3.5 | 9.6 | 0.00 | 0.00 | 0.00 | 68 | 1006.0 |
| 20260505225011 | 84 | 296 | 2.6 | 7.8 | 0.00 | 0.00 | 0.00 | 67 | 1005.9 |
| 20260505224524 | 85 | 115 | 2.6 | 7.8 | 0.00 | 0.00 | 0.00 | 66 | 1006.0 |
| 20260505224007 | 85 | 222 | 2.6 | 6.1 | 0.00 | 0.00 | 0.00 | 67 | 1006.0 |
| 20260505223507 | 84 | 167 | 3.5 | 8.7 | 0.00 | 0.00 | 0.00 | 67 | 1006.0 |
| 20260505223014 | 84 | 191 | 2.6 | 9.6 | 0.00 | 0.00 | 0.00 | 68 | 1006.3 |
| 20260505222506 | 84 | 190 | 4.3 | 9.6 | 0.00 | 0.00 | 0.00 | 67 | 1006.0 |
| 20260505222006 | 84 | 146 | 3.5 | 8.7 | 0.00 | 0.00 | 0.00 | 68 | 1006.1 |
| 20260505221516 | 84 | 111 | 4.3 | 8.7 | 0.00 | 0.00 | 0.00 | 67 | 1006.1 |
| 20260505221006 | 85 | 146 | 2.6 | 9.6 | 0.00 | 0.00 | 0.00 | 67 | 1006.2 |
| 20260505220504 | 84 | 280 | 2.6 | 9.6 | 0.00 | 0.00 | 0.00 | 68 | 1006.2 |
| 20260505220019 | 84 | 260 | 5.2 | 8.7 | 0.00 | 0.00 | 0.00 | 67 | 1006.2 |
| 20260505215505 | 85 | 126 | 3.5 | 6.1 | 0.00 | 0.00 | 0.00 | 65 | 1006.2 |
| 20260505215009 | 85 | 213 | 2.6 | 7.8 | 0.00 | 0.00 | 0.00 | 66 | 1006.4 |
| 20260505214525 | 85 | 99 | 2.6 | 8.7 | 0.00 | 0.00 | 0.00 | 65 | 1006.5 |
| 20260505214009 | 85 | 185 | 3.5 | 8.7 | 0.00 | 0.00 | 0.00 | 66 | 1006.5 |
| 20260505213509 | 85 | 128 | 2.6 | 7.0 | 0.00 | 0.00 | 0.00 | 66 | 1006.5 |
| 20260505213026 | 85 | 154 | 2.6 | 7.0 | 0.00 | 0.00 | 0.00 | 66 | 1006.7 |
| 20260505212508 | 85 | 168 | 0.9 | 7.8 | 0.00 | 0.00 | 0.00 | 66 | 1006.6 |
| 20260505212004 | 84 | 202 | 2.6 | 7.8 | 0.00 | 0.00 | 0.00 | 66 | 1006.6 |
| 20260505211516 | 85 | 250 | 2.6 | 7.8 | 0.00 | 0.00 | 0.00 | 66 | 1006.7 |
| 20260505211005 | 85 | 121 | 1.7 | 7.0 | 0.00 | 0.00 | 0.00 | 67 | 1006.8 |
| 20260505210511 | 85 | 218 | 2.6 | 8.7 | 0.00 | 0.00 | 0.00 | 67 | 1006.8 |
| 20260505210006 | 84 | 144 | 2.6 | 8.7 | 0.00 | 0.00 | 0.00 | 67 | 1006.8 |
| 20260505205500 | 84 | 93 | 2.6 | 7.8 | 0.00 | 0.00 | 0.00 | 68 | 1006.9 |
| 20260505205004 | 84 | 202 | 2.6 | 7.8 | 0.00 | 0.00 | 0.00 | 67 | 1006.9 |
| 20260505204505 | 84 | 11 | 2.6 | 7.8 | 0.00 | 0.00 | 0.00 | 67 | 1007.1 |
| 20260505204001 | 84 | 148 | 2.6 | 7.0 | 0.00 | 0.00 | 0.00 | 66 | 1007.2 |
| 20260505203501 | 84 | 181 | 1.7 | 7.0 | 0.00 | 0.00 | 0.00 | 68 | 1007.4 |
| 20260505203007 | 84 | 220 | 3.5 | 9.6 | 0.00 | 0.00 | 0.00 | 67 | 1007.4 |
| 20260505202504 | 83 | 219 | 3.5 | 9.6 | 0.00 | 0.00 | 0.00 | 68 | 1007.5 |
| 20260505202002 | 83 | 216 | 4.3 | 7.0 | 0.00 | 0.00 | 0.00 | 67 | 1007.5 |
| 20260505201507 | 84 | 154 | 4.3 | 7.0 | 0.00 | 0.00 | 0.00 | 66 | 1007.5 |
| 20260505201006 | 84 | 258 | 3.5 | 7.0 | 0.00 | 0.00 | 0.00 | 67 | 1007.6 |
| 20260505200509 | 84 | 248 | 1.7 | 7.8 | 0.00 | 0.00 | 0.00 | 68 | 1007.6 |
| 20260505200015 | 83 | 233 | 3.5 | 7.8 | 0.00 | 0.00 | 0.00 | 70 | 1007.6 |
| 20260505195507 | 82 | 188 | 1.7 | 8.7 | 0.00 | 0.00 | 0.00 | 71 | 1007.7 |
| 20260505195004 | 82 | 210 | 2.6 | 8.7 | 0.00 | 0.00 | 0.00 | 71 | 1007.8 |
| 20260505194507 | 82 | 192 | 2.6 | 8.7 | 0.00 | 0.00 | 0.00 | 71 | 1007.9 |
| 20260505194004 | 81 | 167 | 3.5 | 7.8 | 0.00 | 0.00 | 0.00 | 71 | 1008.0 |
| 20260505193501 | 81 | 271 | 4.3 | 8.7 | 0.00 | 0.00 | 0.00 | 71 | 1008.0 |
| 20260505193004 | 82 | 262 | 3.5 | 8.7 | 0.00 | 0.00 | 0.00 | 71 | 1008.0 |
| 20260505192501 | 82 | 106 | 2.6 | 8.7 | 0.00 | 0.00 | 0.00 | 72 | 1008.2 |
| 20260505192001 | 81 | 180 | 3.5 | 8.7 | 0.00 | 0.00 | 0.00 | 71 | 1008.3 |
| 20260505191511 | 81 | 264 | 1.7 | 8.7 | 0.00 | 0.00 | 0.00 | 73 | 1008.2 |
| 20260505190504 | 81 | 183 | 4.3 | 9.6 | 0.00 | 0.00 | 0.00 | 71 | 1008.4 |
| 20260505190006 | 81 | 109 | 2.6 | 8.7 | 0.00 | 0.00 | 0.00 | 74 | 1008.5 |
| 20260505185504 | 80 | 291 | 1.7 | 10.4 | 0.00 | 0.00 | 0.00 | 74 | 1008.5 |
| 20260505184506 | 79 | 192 | 2.6 | 7.8 | 0.00 | 0.00 | 0.00 | 75 | 1008.7 |
| 20260505183504 | 79 | 213 | 1.7 | 7.8 | 0.00 | 0.00 | 0.00 | 76 | 1008.8 |
| 20260505182503 | 79 | 211 | 1.7 | 7.0 | 0.00 | 0.00 | 0.00 | 76 | 1008.8 |
| 20260505182002 | 78 | 170 | 2.6 | 7.0 | 0.00 | 0.00 | 0.00 | 77 | 1008.8 |
| 20260505181508 | 78 | 209 | 1.7 | 7.8 | 0.00 | 0.00 | 0.00 | 78 | 1008.9 |
| 20260505181003 | 78 | 195 | 4.3 | 7.8 | 0.00 | 0.00 | 0.00 | 78 | 1009.0 |
| 20260505180503 | 77 | 142 | 2.6 | 7.0 | 0.00 | 0.00 | 0.00 | 79 | 1009.1 |
| 20260505180010 | 77 | 165 | 1.7 | 7.0 | 0.00 | 0.00 | 0.00 | 79 | 1009.1 |
| 20260505175504 | 77 | 222 | 2.6 | 7.0 | 0.00 | 0.00 | 0.00 | 78 | 1009.2 |
| 20260505175004 | 78 | 209 | 0.9 | 8.7 | 0.00 | 0.00 | 0.00 | 79 | 1009.1 |
| 20260505174507 | 77 | 183 | 1.7 | 8.7 | 0.00 | 0.00 | 0.00 | 80 | 1009.2 |
| 20260505172504 | 76 | 232 | 3.5 | 9.6 | 0.00 | 0.00 | 0.00 | 81 | 1009.4 |
| 20260505171518 | 76 | 213 | 2.6 | 7.0 | 0.00 | 0.00 | 0.00 | 81 | 1009.4 |
| 20260505171003 | 75 | 321 | 1.7 | 7.0 | 0.00 | 0.00 | 0.00 | 81 | 1009.5 |
| 20260505170505 | 75 | 195 | 2.6 | 7.0 | 0.00 | 0.00 | 0.00 | 81 | 1009.5 |
| 20260505170014 | 75 | 192 | 2.6 | 7.0 | 0.00 | 0.00 | 0.00 | 82 | 1009.5 |
| 20260505165503 | 75 | 195 | 3.5 | 8.7 | 0.00 | 0.00 | 0.00 | 82 | 1009.5 |
| 20260505165006 | 75 | 207 | 1.7 | 7.0 | 0.00 | 0.00 | 0.00 | 82 | 1009.5 |
| 20260505164509 | 75 | 68 | 3.5 | 10.4 | 0.00 | 0.00 | 0.00 | 82 | 1009.5 |
| 20260505164004 | 75 | 218 | 3.5 | 10.4 | 0.00 | 0.00 | 0.00 | 82 | 1009.4 |
| 20260505163504 | 75 | 213 | 1.7 | 7.0 | 0.00 | 0.00 | 0.00 | 83 | 1009.4 |
| 20260505163010 | 74 | 221 | 2.6 | 6.1 | 0.00 | 0.00 | 0.00 | 83 | 1009.4 |
| 20260505162505 | 74 | 225 | 1.7 | 6.1 | 0.00 | 0.00 | 0.00 | 83 | 1009.6 |
| 20260505161512 | 74 | 165 | 1.7 | 8.7 | 0.00 | 0.00 | 0.00 | 84 | 1009.6 |
| 20260505161006 | 73 | 212 | 2.6 | 8.7 | 0.00 | 0.00 | 0.00 | 85 | 1009.6 |
| 20260505160507 | 73 | 148 | 2.6 | 7.0 | 0.00 | 0.00 | 0.00 | 85 | 1009.6 |
| 20260505153010 | 72 | 200 | 2.6 | 7.0 | 0.00 | 0.00 | 0.00 | 87 | 1009.6 |
| 20260505152505 | 72 | 229 | 2.6 | 7.8 | 0.00 | 0.00 | 0.00 | 87 | 1009.6 |
| 20260505152008 | 72 | 171 | 2.6 | 7.8 | 0.00 | 0.00 | 0.00 | 87 | 1009.4 |
| 20260505151516 | 72 | 142 | 3.5 | 7.8 | 0.00 | 0.00 | 0.00 | 88 | 1009.4 |
| 20260505150505 | 72 | 217 | 1.7 | 7.8 | 0.00 | 0.00 | 0.00 | 88 | 1009.3 |
| 20260505140507 | 71 | 197 | 2.6 | 7.0 | 0.00 | 0.00 | 0.00 | 89 | 1009.1 |
| 20260505124005 | 70 | 177 | 1.7 | 7.8 | 0.00 | 0.00 | 0.00 | 89 | 1008.2 |
| 20260505123505 | 70 | 151 | 2.6 | 7.8 | 0.00 | 0.00 | 0.00 | 89 | 1008.2 |
| 20260505122506 | 70 | 157 | 2.6 | 7.0 | 0.00 | 0.00 | 0.00 | 89 | 1008.1 |
| 20260505122011 | 70 | 5 | 2.6 | 8.7 | 0.00 | 0.00 | 0.00 | 89 | 1008.2 |
| 20260505121518 | 70 | 182 | 2.6 | 8.7 | 0.00 | 0.00 | 0.00 | 89 | 1008.1 |
| 20260505121009 | 70 | 198 | 3.5 | 8.7 | 0.00 | 0.00 | 0.00 | 89 | 1008.1 |
| 20260505120508 | 70 | 198 | 2.6 | 8.7 | 0.00 | 0.00 | 0.00 | 89 | 1008.0 |
| 20260505120004 | 70 | 360 | 1.7 | 9.6 | 0.00 | 0.00 | 0.00 | 89 | 1007.9 |
| 20260505115504 | 70 | 251 | 3.5 | 9.6 | 0.00 | 0.00 | 0.00 | 89 | 1007.9 |
| 20260505115003 | 70 | 202 | 2.6 | 8.7 | 0.00 | 0.00 | 0.00 | 89 | 1007.7 |
| 20260505114506 | 70 | 68 | 2.6 | 7.8 | 0.00 | 0.00 | 0.00 | 89 | 1007.6 |
| 20260505114004 | 70 | 203 | 2.6 | 10.4 | 0.00 | 0.00 | 0.00 | 89 | 1007.8 |
| 20260505113504 | 70 | 138 | 1.7 | 10.4 | 0.00 | 0.00 | 0.00 | 88 | 1007.9 |
| 20260505113013 | 70 | 213 | 1.7 | 7.8 | 0.00 | 0.00 | 0.00 | 88 | 1008.0 |
| 20260505112509 | 70 | 247 | 1.7 | 7.8 | 0.00 | 0.00 | 0.00 | 88 | 1007.9 |
| 20260505112006 | 70 | 171 | 2.6 | 7.8 | 0.00 | 0.00 | 0.00 | 87 | 1007.9 |
| 20260505111522 | 70 | 177 | 1.7 | 7.8 | 0.00 | 0.00 | 0.00 | 87 | 1007.8 |
| 20260505111006 | 70 | 209 | 3.5 | 8.7 | 0.00 | 0.00 | 0.00 | 87 | 1007.9 |
| 20260505110507 | 70 | 174 | 4.3 | 10.4 | 0.00 | 0.00 | 0.00 | 87 | 1008.0 |